Time,TemperatureF,DewpointF,PressureIn,WindDirection,WindDirectionDegrees,WindSpeedMPH,WindSpeedGustMPH,Humidity,HourlyPrecipIn,Conditions,Clouds,dailyrainin,SoftwareType,DateUTC
2015-07-06 00:04:00,73.0,67.0,29.80,South,178,1.0,4.0,81,-99.99,,,-99.99,,2015-07-06 05:04:00,
2015-07-06 00:13:00,73.0,67.0,29.80,South,178,1.0,4.0,81,-99.99,,,-99.99,,2015-07-06 05:13:00,
2015-07-06 00:23:00,73.0,67.0,29.80,South,174,1.0,4.0,82,-99.99,,,-99.99,,2015-07-06 05:23:00,
2015-07-06 00:33:00,73.0,68.0,29.80,South,171,1.0,5.0,83,-99.99,,,-99.99,,2015-07-06 05:33:00,
2015-07-06 00:44:00,73.0,68.0,29.80,South,171,1.0,5.0,83,-99.99,,,-99.99,,2015-07-06 05:44:00,
2015-07-06 00:53:00,73.0,68.0,29.79,South,171,1.0,5.0,84,-99.99,,,-99.99,,2015-07-06 05:53:00,
2015-07-06 01:03:00,73.0,68.0,29.80,South,171,1.0,3.0,85,-99.99,,,-99.99,,2015-07-06 06:03:00,
2015-07-06 01:13:00,73.0,68.0,29.80,South,171,1.0,3.0,85,-99.99,,,-99.99,,2015-07-06 06:13:00,
2015-07-06 01:23:00,73.0,68.0,29.80,South,171,0.0,3.0,85,-99.99,,,-99.99,,2015-07-06 06:23:00,
2015-07-06 01:33:00,73.0,69.0,29.80,South,171,1.0,3.0,86,-99.99,,,-99.99,,2015-07-06 06:33:00,
2015-07-06 01:43:00,73.0,69.0,29.80,South,171,1.0,3.0,86,-99.99,,,-99.99,,2015-07-06 06:43:00,
2015-07-06 01:54:00,72.0,68.0,29.80,South,171,1.0,4.0,87,-99.99,,,-99.99,,2015-07-06 06:54:00,
2015-07-06 02:03:00,72.0,68.0,29.80,South,171,0.0,3.0,87,-99.99,,,-99.99,,2015-07-06 07:03:00,
2015-07-06 02:13:00,72.0,68.0,29.80,South,171,0.0,3.0,87,-99.99,,,-99.99,,2015-07-06 07:13:00,
2015-07-06 02:23:00,72.0,68.0,29.80,South,171,0.0,4.0,87,-99.99,,,-99.99,,2015-07-06 07:23:00,
2015-07-06 02:33:00,72.0,68.0,29.80,South,171,0.0,2.0,88,-99.99,,,-99.99,,2015-07-06 07:33:00,
2015-07-06 02:43:00,72.0,68.0,29.80,South,171,0.0,2.0,88,-99.99,,,-99.99,,2015-07-06 07:43:00,
2015-07-06 02:53:00,72.0,68.0,29.79,South,171,1.0,3.0,88,-99.99,,,-99.99,,2015-07-06 07:53:00,
2015-07-06 03:03:00,72.0,69.0,29.80,South,171,0.0,2.0,89,-99.99,,,-99.99,,2015-07-06 08:03:00,
2015-07-06 03:12:00,72.0,69.0,29.80,South,171,0.0,2.0,89,-99.99,,,-99.99,,2015-07-06 08:12:00,
2015-07-06 03:23:00,72.0,69.0,29.80,South,171,2.0,4.0,89,-99.99,,,-99.99,,2015-07-06 08:23:00,
2015-07-06 03:43:00,72.0,69.0,29.79,South,175,1.0,6.0,90,-99.99,,,-99.99,,2015-07-06 08:43:00,
2015-07-06 03:53:00,72.0,69.0,29.79,South,175,2.0,6.0,90,-99.99,,,-99.99,,2015-07-06 08:53:00,
2015-07-06 04:03:00,72.0,69.0,29.80,South,175,0.0,4.0,90,-99.99,,,-99.99,,2015-07-06 09:03:00,
2015-07-06 04:12:00,72.0,69.0,29.80,South,175,0.0,4.0,90,-99.99,,,-99.99,,2015-07-06 09:12:00,
2015-07-06 04:23:00,72.0,69.0,29.80,South,175,2.0,5.0,90,-99.99,,,-99.99,,2015-07-06 09:23:00,
2015-07-06 04:33:00,72.0,69.0,29.80,South,175,1.0,4.0,90,-99.99,,,-99.99,,2015-07-06 09:33:00,
2015-07-06 04:43:00,72.0,69.0,29.80,South,175,1.0,4.0,90,-99.99,,,-99.99,,2015-07-06 09:43:00,
2015-07-06 04:53:00,72.0,69.0,29.80,South,175,1.0,6.0,90,-99.99,,,-99.99,,2015-07-06 09:53:00,
2015-07-06 05:03:00,72.0,69.0,29.79,South,175,2.0,7.0,90,-99.99,,,-99.99,,2015-07-06 10:03:00,
2015-07-06 05:13:00,72.0,69.0,29.79,South,175,2.0,7.0,90,-99.99,,,-99.99,,2015-07-06 10:13:00,
2015-07-06 05:23:00,72.0,69.0,29.79,South,175,1.0,5.0,90,-99.99,,,-99.99,,2015-07-06 10:23:00,
2015-07-06 05:33:00,72.0,69.0,29.79,South,177,2.0,7.0,90,-99.99,,,-99.99,,2015-07-06 10:33:00,
2015-07-06 05:43:00,72.0,69.0,29.79,South,177,2.0,7.0,90,-99.99,,,-99.99,,2015-07-06 10:43:00,
2015-07-06 05:54:00,72.0,69.0,29.80,South,178,2.0,6.0,90,-99.99,,,-99.99,,2015-07-06 10:54:00,
2015-07-06 06:03:00,72.0,69.0,29.80,South,180,3.0,7.0,90,-99.99,,,-99.99,,2015-07-06 11:03:00,
2015-07-06 06:13:00,72.0,69.0,29.80,South,180,3.0,7.0,90,-99.99,,,-99.99,,2015-07-06 11:13:00,
2015-07-06 06:23:00,72.0,69.0,29.80,South,184,1.0,5.0,90,-99.99,,,-99.99,,2015-07-06 11:23:00,
2015-07-06 06:34:00,72.0,69.0,29.80,South,179,4.0,9.0,90,-99.99,,,-99.99,,2015-07-06 11:34:00,
2015-07-06 06:43:00,72.0,69.0,29.80,South,179,4.0,9.0,90,-99.99,,,-99.99,,2015-07-06 11:43:00,
2015-07-06 06:54:00,72.0,69.0,29.80,SSW,192,4.0,8.0,90,-99.99,,,-99.99,,2015-07-06 11:54:00,
2015-07-06 07:03:00,72.0,69.0,29.80,South,187,2.0,8.0,90,-99.99,,,-99.99,,2015-07-06 12:03:00,
2015-07-06 07:13:00,72.0,69.0,29.80,South,187,2.0,8.0,90,-99.99,,,-99.99,,2015-07-06 12:13:00,
2015-07-06 07:23:00,73.0,70.0,29.81,SSW,193,2.0,9.0,90,-99.99,,,-99.99,,2015-07-06 12:23:00,
2015-07-06 07:34:00,73.0,70.0,29.82,South,182,3.0,8.0,90,-99.99,,,-99.99,,2015-07-06 12:34:00,
2015-07-06 07:44:00,73.0,70.0,29.82,South,182,3.0,8.0,90,-99.99,,,-99.99,,2015-07-06 12:44:00,
2015-07-06 07:54:00,74.0,71.0,29.82,South,182,4.0,9.0,89,-99.99,,,-99.99,,2015-07-06 12:54:00,